This is the latest recevied weather packets stored in our database for station/object KA1JKB. If no packets are shown the sender has not sent any weather packets the latest 10 day(s).
| Time | Temp. | Humidity | Pressure | Rain* | Wind** | Luminosity | Snow |
|---|---|---|---|---|---|---|---|
| 1777230578 | 16.67° C | 62% | 1017.5 hPa | 0 mm | - | 662 W/m² | - |
| 1777230274 | 16.67° C | 67% | 1017.6 hPa | 0 mm | - | 653 W/m² | - |
| 1777229972 | 16.67° C | 63% | 1017.5 hPa | 0 mm | - | 659 W/m² | - |
| 1777229668 | 16.67° C | 66% | 1017.5 hPa | 0 mm | - | 658 W/m² | - |
| 1777229364 | 16.67° C | 60% | 1017.6 hPa | 0 mm | - | 666 W/m² | - |
| 1777229062 | 16.67° C | 64% | 1017.6 hPa | 0 mm | - | 699 W/m² | - |
| 1777228759 | 16.67° C | 61% | 1017.5 hPa | 0 mm | - | 681 W/m² | - |
| 1777228454 | 16.11° C | 62% | 1017.5 hPa | 0 mm | - | 634 W/m² | - |
| 1777228150 | 16.67° C | 66% | 1017.6 hPa | 0 mm | - | 683 W/m² | - |
| 1777227849 | 16.11° C | 64% | 1017.4 hPa | 0 mm | - | 691 W/m² | - |
| 1777227546 | 16.11° C | 66% | 1017.4 hPa | 0 mm | - | 700 W/m² | - |
| 1777227241 | 16.11° C | 63% | 1017.4 hPa | 0 mm | - | 687 W/m² | - |
| 1777226939 | 15.56° C | 65% | 1017.4 hPa | 0 mm | - | 693 W/m² | - |
| 1777226637 | 16.11° C | 68% | 1017.5 hPa | 0 mm | - | 713 W/m² | - |
| 1777226333 | 16.11° C | 69% | 1017.5 hPa | 0 mm | - | 710 W/m² | - |
| 1777226029 | 16.11° C | 63% | 1017.5 hPa | 0 mm | - | 701 W/m² | - |
| 1777225724 | 16.11° C | 62% | 1017.3 hPa | 0 mm | - | 707 W/m² | - |
| 1777225422 | 15.56° C | 65% | 1017.2 hPa | 0 mm | - | 714 W/m² | - |
| 1777225119 | 15.56° C | 68% | 1017.3 hPa | 0 mm | - | 720 W/m² | - |
| 1777224815 | 15.56° C | 68% | 1017.5 hPa | 0 mm | - | 718 W/m² | - |
| 1777224512 | 15.56° C | 66% | 1017.6 hPa | 0 mm | - | 714 W/m² | - |
| 1777224207 | 15° C | 68% | 1017.6 hPa | 0 mm | - | 705 W/m² | - |
| 1777223904 | 15.56° C | 65% | 1017.7 hPa | 0 mm | - | 718 W/m² | - |
| 1777223601 | 15° C | 67% | 1017.6 hPa | 0 mm | - | 719 W/m² | - |
| 1777223297 | 15° C | 65% | 1017.9 hPa | 0 mm | - | 708 W/m² | - |
* Rain latest hour (hover to see other rain measurements)
** Current wind speed in m/s (hover to see current wind gust speed)